Location: Norwich
(42.5310°N, 75.5240°W)
Time: 06:28:25
(UTC-04:00)

Envisat - Pass Details

Date: 01 April 2019
Orbit: 764 x 766 km, 98.2° (Epoch: 24 April)

Event Time Altitude Azimuth Distance (km) Brightness Sun altitude
Rises 20:06:02 0° 183° (S) 3,217 6.1 -7.7°
Reaches altitude 10° 20:08:25 10° 190° (S) 2,296 5.4 -8.2°
Maximum altitude 20:13:14 44° 262° (W) 1,056 4.3 -9.0°
Drops below altitude 10° 20:18:06 10° 334° (NNW) 2,311 6.1 -9.9°
Sets 20:20:31 0° 341° (NNW) 3,241 6.8 -10.3°
